This is the latest recevied weather packets stored in our database for station/object DL3NDS-WX. If no packets are shown the sender has not sent any weather packets the latest 10 day(s).
| Time | Temp. | Humidity | Pressure | Rain* | Wind** | Luminosity | Snow |
|---|---|---|---|---|---|---|---|
| 1788623370 | 20° C | 50% | 1022.9 hPa | 0 mm | - | 283 W/m² | - |
| 1788623308 | 20.56° C | 51% | 1022.9 hPa | 0 mm | - | 294 W/m² | - |
| 1788623247 | 20.56° C | 52% | 1022.8 hPa | 0 mm | - | 313 W/m² | - |
| 1788623186 | 20.56° C | 53% | 1023 hPa | 0 mm | - | 329 W/m² | - |
| 1788623129 | 20.56° C | 52% | 1022.9 hPa | 0 mm | - | 339 W/m² | - |
| 1788623063 | 20.56° C | 53% | 1022.9 hPa | 0 mm | - | 345 W/m² | - |
| 1788623002 | 20.56° C | 53% | 1022.9 hPa | 0 mm | - | 348 W/m² | - |
| 1788622940 | 20.56° C | 52% | 1022.9 hPa | 0 mm | - | 346 W/m² | - |
| 1788622879 | 20.56° C | 52% | 1023 hPa | 0 mm | - | 332 W/m² | - |
| 1788622816 | 20.56° C | 52% | 1023 hPa | 0 mm | - | 339 W/m² | - |
| 1788622755 | 20.56° C | 53% | 1022.9 hPa | 0 mm | - | 339 W/m² | - |
| 1788622694 | 20.56° C | 53% | 1022.9 hPa | 0 mm | - | 330 W/m² | - |
| 1788622634 | 20.56° C | 53% | 1022.9 hPa | 0 mm | - | 343 W/m² | - |
| 1788622574 | 20.56° C | 53% | 1022.7 hPa | 0 mm | - | 348 W/m² | - |
| 1788622512 | 20.56° C | 52% | 1022.9 hPa | 0 mm | - | 339 W/m² | - |
| 1788622451 | 20.56° C | 52% | 1022.9 hPa | 0 mm | - | 345 W/m² | - |
| 1788622389 | 20.56° C | 53% | 1022.9 hPa | 0 mm | - | 343 W/m² | - |
| 1788622328 | 20.56° C | 52% | 1022.9 hPa | 0 mm | - | 339 W/m² | - |
| 1788622265 | 20.56° C | 52% | 1022.8 hPa | 0 mm | - | 341 W/m² | - |
| 1788622206 | 20.56° C | 52% | 1022.8 hPa | 0 mm | - | 346 W/m² | - |
| 1788622143 | 20.56° C | 51% | 1022.7 hPa | 0 mm | - | 357 W/m² | - |
| 1788622082 | 20.56° C | 52% | 1022.7 hPa | 0 mm | - | 362 W/m² | - |
| 1788622021 | 20.56° C | 51% | 1022.8 hPa | 0 mm | - | 366 W/m² | - |
| 1788621960 | 20.56° C | 52% | 1022.8 hPa | 0 mm | - | 367 W/m² | - |
| 1788621901 | 20.56° C | 52% | 1022.7 hPa | 0 mm | - | 371 W/m² | - |
* Rain latest hour (hover to see other rain measurements)
** Current wind speed in m/s (hover to see current wind gust speed)